CAPE
0 5 0 0 0 0 0 0 0 0 0 0 0 0 0 0 0 0 0 0 0 0 0 0 0 0 0 0 0 0 0 0 0 0 0 0 0 0 0 0 0 0 0 0
0 0 0 0 0 0 0 0 0 0 0 0 0 0 0 0 0 0 0 0 0 0 0 0 0 0 0 0 0 0 0 0 0 0 0 0 0 0 0 0 0 0 0 0
0 0 3 0 0 0 0 0 0 0 0 0 0 0 0 0 0 0 0 0 0 0 0 0 0 0 0 0 0 0 0 0 0 0 0 0 0 0 0 0 0 0 0 0
2 0 0 0 0 0 0 0 0 0 0 0 0 0 0 0 0 0 0 0 0 0 0 0 0 0 0 0 0 0 0 0 0 0 0 0 0 0 0 0 0 0 0 0
0 0 0 0 0 0 0 0 0 0 0 0 0 0 0 0 0 0 0 0 0 0 0 0 0 0 0 0 0 0 0 0 0 0 0 0 0 0 0 0 0 0 0 0
0 0 0 0 0 0 0 3 0 0 0 1 0 0 0 0 0 0 0 0 0 0 0 0 0 0 0 0 0 0 0 0 0 0 0 0 0 0 0 0 0 0 0 0
0 0 0 0 0 0 0 7 8 2 0 0 0 0 0 0 0 0 0 0 0 0 0 0 0 0 0 0 0 0 0 0 0 0 0 0 0 0 0 0 0 0 0 0
0 0 0 0 0 0 0 0 0 2 0 0 0 0 0 0 0 0 0 0 0 0 0 0 0 0 0 0 0 0 0 0 0 0 0 0 0 0 0 0 0 0 0 0
3 0 0 0 0 0 0 0 0 0 0 0 0 0 0 0 0 0 0 0 0 0 0 0 0 0 0 0 0 0 0 0 0 0 0 0 0 0 0 0 0 0 0 0
15 8 0 0 0 0 0 0 0 0 0 0 0 0 0 0 0 0 0 0 0 0 0 0 0 0 0 0 0 0 0 0 0 0 0 0 0 0 0 0 0 0 0 0
0 0 0 1 0 0 0 0 0 0 0 0 0 0 0 0 0 0 0 0 0 0 0 0 0 0 0 0 0 0 0 0 0 0 0 0 0 0 0 0 0 0 0 0
0 1 0 0 0 0 0 0 0 1 0 0 0 0 0 0 0 0 0 0 0 0 0 0 0 0 0 0 0 0 0 0 0 0 0 0 0 0 0 0 0 0 0 0
0 0 0 0 0 0 1 0 0 0 0 0 0 0 0 0 0 0 0 0 0 0 0 0 0 0 0 0 0 0 0 0 0 0 0 0 0 0 0 0 0 0 0 0
0 0 0 0 0 0 0 0 0 0 0 0 0 0 0 0 0 0 0 0 0 0 0 0 0 0 0 0 0 0 0 0 0 0 0 0 0 0 0 0 0 0 0 0
0 0 0 0 0 0 0 0 0 0 0 0 0 0 0 0 0 0 0 0 0 0 0 0 0 0 0 0 0 0 0 0 0 0 0 0 0 0 0 0 0 0 0 0
0 0 0 0 0 0 0 0 0 0 0 0 0 0 0 0 0 0 0 0 0 0 0 0 0 0 0 0 0 0 0 0 0 0 0 0 0 0 0 0 0 0 0 0
0 0 0 0 0 0 0 0 0 0 0 0 0 0 0 0 0 0 0 0 0 0 0 0 0 0 0 0 0 0 0 0 0 0 0 0 0 0 0 0 0 0 0 0
0 0 0 0 0 0 0 0 0 0 0 0 0 0 0 0 0 0 0 0 0 0 0 0 0 0 0 0 0 0 0 0 0 0 0 0 0 0 0 0 0 0 0 0
0 0 0 0 0 0 0 0 0 0 0 0 0 0 0 0 0 0 0 0 0 0 0 0 0 0 0 0 0 0 0 0 0 0 0 0 0 0 0 0 0 0 0 0
0 0 0 0 0 0 0 0 0 0 0 0 0 0 0 0 0 0 0 0 0 0 0 0 0 0 0 0 0 0 0 0 0 0 0 0 0 0 0 0 0 0 0 0
0 0 0 0 0 0 0 0 0 0 0 0 0 0 0 0 0 0 0 0 0 0 0 0 0 0 0 0 0 0 0 0 0 0 0 0 0 0 0 0 0 0 0 0
0 0 0 0 0 0 0 0 0 0 0 0 0 0 0 0 0 0 0 0 0 0 0 0 0 0 0 0 0 0 0 0 0 0 0 0 0 0 0 0 0 0 0 0
0 0 0 0 0 0 0 0 0 0 0 0 0 0 0 0 0 0 0 0 0 0 0 0 0 0 0 0 0 0 0 0 0 0 0 0 0 0 0 0 0 0 0 0
0 0 0 0 0 0 0 0 0 0 0 0 0 0 0 0 0 0 0 0 0 0 0 0 0 0 0 0 0 0 0 0 0 0 0 0 0 0 0 0 0 0 0 0
0 0 0 0 0 0 0 0 0 0 0 0 0 0 0 0 0 0 0 0 0 0 0 0 0 0 0 0 0 0 0 0 0 0 0 0 0 0 0 0 0 0 0 0
0 0 0 0 0 0 0 0 0 0 0 0 0 0 0 0 0 0 0 0 0 0 0 0 0 0 0 0 0 0 0 0 0 0 0 0 0 0 0 0 0 0 0 0
CIN
-0 -5 -0 -0 -0 -0 -0 -0 -0 -0 -0 -0 -0 -0 -0 -0 -0 -0 -0 -0 -0 -0 -0 -0 -0 -0 -0 -0 -0 -0 -0 -0 -0 -0 -0 -0 -0 -0 -0 -0 -0 -0 -0 -0
-0 -0 -0 -0 -0 -0 -0 -0 -0 -0 -0 -0 -0 -0 -0 -0 -0 -0 -0 -0 -0 -0 -0 -0 -0 -0 -0 -0 -0 -0 -0 -0 -0 -0 -0 -0 -0 -0 -0 -0 -0 -0 -0 -0
-0 -0 -73 -0 -0 -0 -0 -0 -0 -0 -0 -0 -0 -0 -0 -0 -0 -0 -0 -0 -0 -0 -0 -0 -0 -0 -0 -0 -0 -0 -0 -0 -0 -0 -0 -0 -0 -0 -0 -0 -0 -0 -0 -0
-6 -0 -0 -5 -0 -0 -0 -0 -0 -0 -0 -0 -0 -0 -0 -0 -0 -0 -0 -0 -0 -0 -0 -0 -0 -0 -0 -0 -0 -0 -0 -0 -0 -0 -0 -0 -0 -0 -0 -0 -0 -0 -0 -0
-0 -0 -0 -0 -0 -0 -0 -0 -0 -0 -0 -0 -0 -0 -0 -0 -0 -0 -0 -0 -0 -0 -0 -0 -0 -0 -0 -0 -0 -0 -0 -0 -0 -0 -0 -0 -0 -0 -0 -0 -0 -0 -0 -0
-0 -0 -0 -0 -0 -0 -0 -5 -0 -0 -0 -15 -0 -0 -0 -0 -0 -0 -0 -0 -0 -0 -0 -0 -0 -0 -0 -0 -0 -0 -0 -0 -0 -0 -0 -0 -0 -0 -0 -0 -0 -0 -0 -0
-0 -0 -0 -0 -0 -0 -0 -3 -6 -10 -1 -0 -0 -0 -0 -0 -0 -0 -0 -0 -0 -0 -0 -0 -0 -0 -0 -0 -0 -0 -0 -0 -0 -0 -0 -0 -0 -0 -0 -0 -0 -0 -0 -0
-0 -0 -0 -0 -0 -0 -0 -0 -0 -12 -0 -0 -0 -0 -0 -0 -0 -0 -0 -0 -0 -0 -0 -0 -0 -0 -0 -0 -0 -0 -0 -0 -0 -0 -0 -0 -0 -0 -0 -0 -0 -0 -0 -0
-5 -0 -0 -0 -0 -0 -0 -0 -0 -5 -0 -0 -0 -0 -0 -0 -0 -0 -0 -0 -0 -0 -0 -0 -0 -0 -0 -0 -0 -0 -0 -0 -0 -0 -0 -0 -0 -0 -0 -0 -0 -0 -0 -0
-5 -9 -0 -0 -0 -0 -0 -0 -0 -0 -0 -0 -0 -0 -0 -0 -0 -0 -0 -0 -0 -0 -0 -0 -0 -0 -0 -0 -0 -0 -0 -0 -0 -0 -0 -0 -0 -0 -0 -0 -0 -0 -0 -0
-0 -1 -0 -8 -0 -0 -0 -0 -0 -0 -0 -0 -0 -0 -0 -0 -0 -0 -0 -0 -0 -0 -0 -0 -0 -0 -0 -0 -0 -0 -0 -0 -0 -0 -0 -0 -0 -0 -0 -0 -0 -0 -0 -0
-0 -7 -1 -0 -0 -0 -0 -0 -0 -0 -0 -0 -0 -0 -0 -0 -0 -0 -0 -0 -0 -0 -0 -0 -0 -0 -0 -0 -0 -0 -0 -0 -0 -0 -0 -0 -0 -0 -0 -0 -0 -0 -0 -0
-0 -0 -0 -0 -16 -3 -0 -0 -0 -0 -0 -0 -0 -0 -0 -0 -0 -0 -0 -0 -0 -0 -0 -0 -0 -0 -0 -0 -0 -0 -0 -0 -0 -0 -0 -0 -0 -0 -0 -0 -0 -0 -0 -0
-0 -0 -0 -0 -0 -0 -0 -0 -0 -0 -0 -0 -0 -0 -0 -0 -0 -0 -0 -0 -0 -0 -0 -0 -0 -0 -0 -0 -0 -0 -0 -0 -0 -0 -0 -0 -0 -0 -0 -0 -0 -0 -0 -0
-0 -0 -0 -0 -0 -0 -0 -0 -0 -1 -0 -0 -0 -0 -0 -0 -0 -0 -0 -0 -0 -0 -0 -0 -0 -0 -0 -0 -0 -0 -0 -0 -0 -0 -0 -0 -0 -0 -0 -0 -0 -0 -0 -0
-0 -0 -0 -0 -0 -0 -0 -0 -0 -0 -0 -0 -0 -0 -0 -0 -0 -0 -0 -0 -0 -0 -0 -0 -0 -0 -0 -0 -0 -0 -0 -0 -0 -0 -0 -0 -0 -0 -0 -0 -0 -0 -0 -0
-0 -0 -0 -0 -0 -0 -0 -0 -0 -0 -0 -0 -9 -0 -0 -0 -0 -0 -0 -0 -0 -0 -0 -0 -0 -0 -0 -0 -0 -0 -0 -0 -0 -0 -0 -0 -0 -0 -0 -0 -0 -0 -0 -0
-0 -0 -0 -0 -0 -0 -0 -0 -0 -0 -0 -0 -0 -0 -0 -0 -0 -0 -0 -0 -0 -0 -0 -0 -0 -0 -0 -0 -0 -0 -0 -0 -0 -0 -0 -0 -0 -0 -0 -0 -0 -0 -0 -0
-0 -0 -0 -0 -0 -0 -0 -0 -0 -0 -0 -0 -0 -0 -0 -0 -0 -0 -0 -0 -0 -0 -0 -0 -0 -0 -0 -0 -0 -0 -0 -0 -0 -0 -0 -0 -0 -0 -0 -0 -0 -0 -0 -0
-0 -0 -0 -0 -0 -0 -0 -0 -0 -0 -0 -0 -0 -0 -0 -0 -0 -0 -0 -0 -0 -0 -0 -0 -0 -0 -0 -0 -0 -0 -0 -0 -0 -0 -0 -0 -0 -0 -0 -0 -0 -0 -0 -0
-0 -4 -0 -0 -0 -0 -0 -0 -0 -0 -0 -0 -0 -0 -0 -0 -0 -0 -0 -0 -0 -0 -0 -0 -0 -0 -0 -0 -0 -0 -0 -0 -0 -0 -0 -0 -0 -0 -0 -0 -0 -0 -0 -0
-0 -0 -0 -0 -0 -0 -0 -0 -0 -0 -0 -0 -0 -0 -0 -0 -0 -0 -0 -0 -0 -0 -0 -0 -0 -0 -0 -0 -0 -0 -0 -0 -0 -0 -0 -0 -0 -0 -0 -0 -0 -0 -0 -0
-0 -0 -0 -0 -0 -0 -0 -0 -0 -0 -0 -0 -0 -0 -0 -0 -0 -0 -0 -0 -0 -0 -0 -0 -0 -0 -0 -0 -0 -0 -0 -0 -0 -0 -0 -0 -0 -0 -0 -0 -0 -0 -0 -0
-0 -0 -0 -0 -0 -0 -0 -0 -0 -0 -0 -0 -0 -0 -0 -0 -0 -0 -0 -0 -0 -0 -0 -0 -0 -0 -0 -0 -0 -0 -0 -0 -0 -0 -0 -0 -0 -0 -0 -0 -0 -0 -0 -0
-0 -0 -0 -0 -0 -0 -0 -0 -0 -0 -0 -0 -0 -0 -0 -0 -0 -0 -0 -0 -0 -0 -0 -0 -0 -0 -0 -0 -0 -0 -0 -0 -0 -0 -0 -0 -0 -0 -0 -0 -0 -0 -0 -0
-0 -0 -0 -0 -0 -0 -0 -0 -0 -0 -0 -0 -0 -0 -0 -0 -0 -0 -0 -0 -0 -0 -0 -0 -0 -0 -0 -0 -0 -0 -0 -0 -0 -0 -0 -0 -0 -0 -0 -0 -0 -0 -0 -0
Wind_Speed
12 20 15 19 22 26 28 31 34 31 25 28 33 33 27 21 24 25 23 22 23 26 24 26 27 27 24 21 17 15 13 12 9 11 11 12 15 15 16 16 16 15 14 14
9 20 21 24 23 26 28 34 36 31 27 29 33 40 31 25 27 25 24 24 24 25 26 27 28 27 26 23 18 16 16 12 12 12 11 12 13 14 15 16 15 16 16 15
10 18 17 22 28 30 30 33 32 32 25 28 29 39 38 32 30 28 29 28 26 24 26 29 29 28 27 26 25 17 19 14 13 12 11 10 11 15 16 17 16 16 16 15
8 19 17 18 25 23 37 27 31 32 32 42 29 48 38 36 35 32 29 27 26 27 28 27 27 25 25 28 25 19 18 17 15 14 13 14 15 15 16 14 15 15 15 15
8 15 16 23 17 24 35 27 31 30 35 36 35 39 38 31 37 36 31 26 25 25 27 27 26 24 24 24 23 22 20 18 17 16 15 14 13 12 12 13 13 14 15 15
9 28 22 20 27 20 24 25 25 27 32 46 40 39 49 38 35 36 33 29 24 22 24 26 25 21 22 23 23 21 20 19 17 16 15 13 11 11 11 11 12 14 14 14
8 13 33 26 29 23 20 26 32 34 39 49 31 38 63 36 33 34 33 28 23 21 21 22 23 23 23 23 22 20 19 19 16 14 13 12 11 10 10 10 11 12 12 13
11 12 17 25 28 26 24 24 32 34 35 39 28 45 47 34 34 34 33 24 19 20 20 20 22 22 23 22 21 20 18 17 16 13 13 11 11 11 10 10 10 11 12 13
13 12 27 25 22 27 30 32 25 41 36 36 37 43 41 32 32 28 23 19 19 17 18 20 20 21 21 21 20 19 18 16 15 14 12 11 10 10 10 10 10 11 12 12
15 18 25 36 31 31 34 29 31 35 35 39 42 45 44 30 29 23 19 16 15 14 15 16 18 18 19 18 17 16 16 15 13 12 11 10 9 9 10 10 10 10 11 12
18 19 19 24 23 27 31 37 35 35 35 40 48 50 34 34 25 19 17 13 12 11 13 14 14 16 16 16 16 16 15 13 12 11 10 9 9 9 9 10 10 10 11 12
19 23 24 23 30 29 35 38 35 39 38 40 44 60 26 28 27 20 18 17 17 13 12 12 13 13 15 16 16 16 14 13 12 11 9 9 9 9 9 9 9 10 10 10
18 19 24 23 23 24 27 28 37 41 40 42 43 60 34 29 23 20 17 15 15 14 13 12 11 12 13 14 14 14 13 11 10 9 8 8 8 8 8 8 8 9 10 11
20 21 22 26 27 32 35 36 37 36 38 40 41 51 37 30 24 16 16 15 16 13 13 12 12 11 11 11 12 12 11 9 8 8 7 7 7 7 7 8 8 9 10 11
22 28 29 31 33 39 43 47 45 44 40 44 46 47 40 42 28 19 16 14 14 17 14 13 12 11 10 10 11 10 9 8 7 7 6 6 6 6 7 8 9 10 11 12
22 29 29 33 32 35 40 47 46 46 46 46 44 51 41 30 25 23 18 18 21 20 16 14 11 11 10 10 10 9 9 8 7 6 6 6 6 6 7 9 10 11 12 14
26 28 32 36 33 38 40 37 46 47 45 42 46 43 31 32 27 30 23 18 18 19 18 17 14 11 10 10 9 9 8 7 7 6 6 6 6 7 9 9 10 12 14 16
29 30 31 37 35 42 34 34 38 45 45 41 41 38 33 31 27 25 28 24 18 17 18 18 15 13 11 10 9 8 7 7 6 6 5 6 6 7 9 10 13 15 16 18
23 28 32 34 33 37 33 31 33 36 40 34 39 36 30 22 22 26 24 23 21 17 14 13 11 12 12 11 10 8 7 6 5 5 5 5 7 8 10 12 14 16 16 18
22 20 26 28 33 35 30 28 30 33 51 35 34 32 28 25 33 28 21 21 19 17 18 16 13 11 11 11 9 8 8 7 6 6 6 7 8 10 11 12 14 16 18 20
25 22 21 23 27 28 24 26 24 32 34 31 31 32 31 33 31 17 13 14 14 15 15 14 12 12 11 10 9 8 7 7 7 6 6 8 9 9 10 12 15 16 18 19
23 21 21 21 21 22 18 20 26 28 29 28 24 23 25 21 16 14 13 14 14 13 13 13 12 11 10 9 7 6 6 5 5 5 7 8 9 11 12 13 15 17 18 19
21 17 19 17 18 18 20 23 26 28 30 29 26 20 13 16 13 14 15 14 13 12 13 12 12 10 8 7 6 6 5 3 3 4 6 8 10 11 13 14 15 17 18 20
19 18 19 24 18 21 23 24 25 28 30 28 22 18 16 15 12 10 10 12 13 13 13 12 11 10 8 6 4 3 2 2 3 5 7 8 10 11 13 14 16 18 20 23
21 20 21 24 26 25 23 23 26 24 23 20 18 15 13 10 11 9 9 10 13 13 12 11 10 9 7 5 3 1 1 1 3 5 7 9 11 12 14 16 18 19 21 23
17 16 16 23 20 23 25 23 22 20 20 17 14 12 11 8 11 10 10 11 12 12 11 10 9 8 6 4 1 1 2 3 4 5 8 10 11 13 15 17 19 21 22 24
Wind_Direction
271 260 244 257 259 264 264 262 262 269 272 268 266 267 269 269 267 264 262 256 254 252 251 248 248 248 250 252 261 263 263 270 277 288 297 305 304 306 308 313 315 315 312 313
276 197 267 266 266 266 264 261 262 271 273 267 269 265 272 268 268 264 260 257 252 250 249 248 247 247 248 252 257 260 265 266 274 285 296 304 307 311 309 310 315 315 310 310
200 281 268 270 265 264 266 263 265 268 274 271 274 268 265 269 269 266 264 261 255 246 245 246 246 246 248 251 259 265 265 266 272 282 291 304 308 308 306 307 310 311 314 314
243 276 279 260 266 263 264 270 271 271 269 266 269 265 266 264 265 265 263 258 253 250 248 245 243 244 248 251 258 261 260 267 272 276 281 288 294 298 303 310 311 312 313 314
242 288 260 268 234 266 267 274 271 271 268 269 267 268 267 265 262 264 264 259 255 249 245 243 243 243 247 251 253 256 264 267 269 273 279 285 295 301 308 312 311 312 314 315
241 278 282 266 274 265 273 276 279 274 268 263 263 264 262 263 265 270 269 264 253 245 242 243 244 243 247 250 253 256 260 265 269 272 278 283 287 291 302 309 309 309 312 314
265 239 273 278 273 270 263 264 270 268 264 266 268 265 253 271 270 272 274 267 252 242 236 235 237 241 244 247 250 254 257 260 266 270 277 283 285 291 301 306 308 308 310 312
291 282 262 273 262 266 253 250 262 271 271 273 270 264 265 277 273 277 276 272 256 243 237 234 234 236 241 244 246 249 251 254 260 267 275 282 283 291 300 307 310 311 312 313
312 285 288 279 263 256 265 255 246 270 275 278 271 270 274 277 275 277 275 263 252 242 235 233 234 236 239 241 244 244 246 251 258 263 269 276 284 289 295 303 309 311 313 316
311 300 298 279 276 264 258 267 266 262 267 268 272 269 266 272 269 272 269 258 247 238 231 230 231 233 238 240 241 243 246 249 254 261 266 274 282 290 293 299 305 311 315 318
313 307 307 306 283 267 262 260 263 269 264 268 271 269 273 269 270 263 260 248 238 233 226 224 227 230 232 235 238 240 242 246 251 256 262 268 278 286 291 296 303 310 316 319
305 304 291 280 287 283 275 263 255 262 263 265 267 259 285 276 274 266 262 254 249 240 224 219 218 222 228 234 237 240 243 245 250 254 258 267 275 282 290 296 303 310 317 323
314 304 300 297 292 288 282 283 267 269 268 263 264 258 276 277 277 272 260 253 239 228 223 220 217 221 227 233 235 238 242 243 247 250 253 262 270 278 288 296 303 310 315 320
308 302 295 290 287 289 285 279 277 274 269 268 271 267 274 270 268 267 259 246 231 221 217 221 222 222 223 228 229 232 235 236 239 245 251 257 267 274 285 296 303 309 314 318
307 296 293 290 290 284 279 275 274 268 272 269 270 269 275 267 263 257 247 237 227 226 218 215 215 215 218 222 225 227 231 233 231 238 249 259 269 278 286 296 303 308 313 317
306 301 300 294 291 288 282 273 271 269 270 271 271 267 274 277 263 251 240 234 234 229 220 217 210 213 218 212 213 220 223 229 232 237 247 260 270 281 289 297 303 309 314 317
301 299 299 292 294 292 284 276 269 267 267 268 265 267 275 272 264 249 241 229 223 219 215 218 208 204 200 194 196 203 213 224 233 241 252 263 276 284 291 304 311 314 315 316
293 292 293 293 295 283 287 283 276 267 266 266 265 268 270 276 270 257 246 240 227 218 213 209 213 212 210 208 208 202 214 228 236 246 257 271 284 294 301 306 309 311 314 315
282 287 291 288 286 292 291 287 278 272 265 272 267 264 268 272 272 263 250 241 237 226 209 205 195 201 208 205 207 208 218 227 235 247 261 278 293 300 305 308 311 313 317 320
308 285 282 291 291 291 296 289 285 276 263 275 269 264 261 262 261 264 247 236 234 228 225 219 211 203 203 209 210 212 220 229 242 255 271 289 300 304 308 313 315 316 317 319
315 306 283 280 286 296 299 292 287 269 267 279 275 263 260 257 265 257 241 231 224 218 210 205 200 196 202 205 209 211 224 238 251 264 281 294 307 315 319 319 319 320 323 325
323 316 299 301 305 295 315 305 280 279 276 279 283 277 263 259 258 245 236 222 209 200 200 200 197 194 197 202 202 211 229 245 258 274 286 303 309 315 319 322 325 327 329 331
325 334 324 313 303 318 318 306 294 284 274 275 274 276 273 252 249 239 232 219 209 195 192 187 180 182 193 203 213 212 231 247 273 295 305 314 323 327 328 330 331 332 333 333
316 318 318 319 318 308 310 308 301 283 273 271 273 265 262 253 244 230 223 212 204 194 180 173 170 176 190 190 199 211 234 268 299 315 321 331 335 338 339 338 337 335 333 332
315 310 307 307 308 310 307 303 297 290 276 270 268 260 253 240 228 214 205 196 193 186 177 170 169 176 177 177 180 224 312 339 341 345 340 341 343 342 340 338 337 336 334 333
318 314 306 305 316 313 309 303 293 288 275 261 256 246 241 223 211 197 185 181 176 175 168 169 171 170 176 175 167 327 345 1 3 353 347 344 344 343 341 341 339 341 341 341